When you browse on this site, cookies collect data to enhance your experience and personalize the content and advertising you see.
Visit our Privacy Policy to learn more. By continuing to use the site, you agree to this use of cookies and data.
  • In Portugal
  • List of Countries
  • For 7 days
  • Water Temperature
  • Satellite Maps
  • Weather Map
  • Weather Widgets
  • user-avatar
    Login

    Hourly Weather Kalgoorlie

    Today, 18 July, Thursday

    Time Temperature Precipitation Wind Pressure Humidity
    00:00 +12°C° 0 mm 3 mps 733 mmHg 36%
    01:00 +12°C° 0 mm 2 mps 733 mmHg 38%
    02:00 +12°C° 0 mm 2 mps 732 mmHg 40%
    03:00 +10°C° 0 mm 2 mps 732 mmHg 42%
    04:00 +10°C° 0 mm 2 mps 732 mmHg 45%
    05:00 +9°C° 0 mm 2 mps 732 mmHg 47%
    06:00 +10°C° 0 mm 2 mps 732 mmHg 48%
    07:00 +12°C° 0 mm 1 mps 733 mmHg 49%
    08:00 +13°C° 0 mm 1 mps 733 mmHg 53%
    09:00 +14°C° 0 mm 1 mps 733 mmHg 48%
    10:00 +16°C° 0 mm 1 mps 733 mmHg 42%
    11:00 +16°C° 0 mm 0 mps 733 mmHg 36%
    12:00 +19°C° 0 mm 1 mps 732 mmHg 34%
    13:00 +20°C° 0 mm 1 mps 732 mmHg 31%
    14:00 +21°C° 0 mm 1 mps 731 mmHg 28%
    15:00 +20°C° 0 mm 1 mps 731 mmHg 31%
    16:00 +19°C° 0 mm 1 mps 731 mmHg 35%
    17:00 +18°C° 0 mm 1 mps 730 mmHg 39%
    18:00 +16°C° 0 mm 1 mps 731 mmHg 38%
    19:00 +16°C° 0 mm 2 mps 731 mmHg 36%
    20:00 +15°C° 0 mm 2 mps 731 mmHg 35%
    21:00 +14°C° 0 mm 3 mps 731 mmHg 35%
    22:00 +13°C° 0 mm 3 mps 731 mmHg 35%
    23:00 +13°C° 0 mm 3 mps 731 mmHg 35%

    Tomorrow, 19 July, Friday

    Time Temperature Precipitation Wind Pressure Humidity
    00:00 +12°C° 0 mm 3 mps 730 mmHg 34%
    01:00 +12°C° 0 mm 3 mps 729 mmHg 33%
    02:00 +12°C° 0 mm 3 mps 729 mmHg 33%
    03:00 +11°C° 0 mm 4 mps 729 mmHg 33%
    04:00 +11°C° 0 mm 4 mps 728 mmHg 34%
    05:00 +10°C° 0 mm 4 mps 728 mmHg 34%
    06:00 +11°C° 0 mm 4 mps 728 mmHg 34%
    07:00 +11°C° 0 mm 4 mps 728 mmHg 34%
    08:00 +10°C° 0 mm 5 mps 728 mmHg 34%
    09:00 +14°C° 0 mm 6 mps 728 mmHg 30%
    10:00 +16°C° 0 mm 8 mps 727 mmHg 25%
    11:00 +19°C° 0 mm 9 mps 727 mmHg 20%
    12:00 +21°C° 0 mm 10 mps 726 mmHg 19%
    13:00 +22°C° 0 mm 10 mps 725 mmHg 18%
    14:00 +23°C° 0 mm 11 mps 724 mmHg 16%
    15:00 +22°C° 0 mm 9 mps 724 mmHg 18%
    16:00 +21°C° 0 mm 8 mps 724 mmHg 20%
    17:00 +20°C° 0 mm 7 mps 724 mmHg 22%
    18:00 +18°C° 0 mm 7 mps 724 mmHg 24%
    19:00 +17°C° 0 mm 7 mps 723 mmHg 26%
    20:00 +16°C° 0 mm 7 mps 723 mmHg 28%
    21:00 +15°C° 0 mm 8 mps 723 mmHg 35%
    22:00 +13°C° 0 mm 8 mps 723 mmHg 42%
    23:00 +13°C° 0 mm 9 mps 723 mmHg 48%

    Day after tomorrow, 20 July, Saturday

    Time Temperature Precipitation Wind Pressure Humidity
    00:00 +12°C° 0.3 mm 10 mps 723 mmHg 55%
    01:00 +12°C° 0.3 mm 11 mps 724 mmHg 61%
    02:00 +10°C° 0.3 mm 13 mps 724 mmHg 67%
    03:00 +9°C° 0 mm 11 mps 725 mmHg 68%
    04:00 +8°C° 0 mm 9 mps 725 mmHg 70%
    05:00 +7°C° 0 mm 8 mps 726 mmHg 71%
    06:00 +7°C° 0 mm 8 mps 727 mmHg 71%
    07:00 +7°C° 0 mm 8 mps 727 mmHg 71%
    08:00 +7°C° 0 mm 8 mps 728 mmHg 72%
    09:00 +9°C° 0 mm 8 mps 729 mmHg 63%
    10:00 +10°C° 0 mm 9 mps 729 mmHg 54%
    11:00 +12°C° 0 mm 9 mps 730 mmHg 46%
    12:00 +12°C° 0 mm 9 mps 730 mmHg 43%
    13:00 +13°C° 0 mm 8 mps 729 mmHg 40%
    14:00 +13°C° 0 mm 8 mps 729 mmHg 37%
    15:00 +14°C° 0 mm 7 mps 730 mmHg 39%
    16:00 +13°C° 0 mm 6 mps 730 mmHg 41%
    17:00 +12°C° 0 mm 5 mps 730 mmHg 43%
    18:00 +10°C° 0 mm 5 mps 731 mmHg 48%
    19:00 +10°C° 0 mm 5 mps 731 mmHg 53%
    20:00 +10°C° 0 mm 4 mps 732 mmHg 58%
    21:00 +8°C° 0 mm 4 mps 732 mmHg 61%
    22:00 +8°C° 0 mm 3 mps 732 mmHg 64%
    23:00 +8°C° 0 mm 3 mps 732 mmHg 67%

    21 July, Sunday

    Time Temperature Precipitation Wind Pressure Humidity
    00:00 +8°C° 0 mm 3 mps 732 mmHg 69%
    01:00 +7°C° 0 mm 3 mps 732 mmHg 71%
    02:00 +7°C° 0 mm 3 mps 732 mmHg 73%
    03:00 +7°C° 0 mm 3 mps 732 mmHg 75%
    04:00 +5°C° 0 mm 3 mps 731 mmHg 77%
    05:00 +5°C° 0 mm 4 mps 731 mmHg 79%
    06:00 +6°C° 0 mm 4 mps 732 mmHg 79%
    07:00 +6°C° 0 mm 5 mps 732 mmHg 79%
    08:00 +5°C° 0 mm 6 mps 732 mmHg 79%
    09:00 +8°C° 0 mm 6 mps 732 mmHg 70%
    10:00 +10°C° 0 mm 6 mps 732 mmHg 61%
    11:00 +12°C° 0 mm 7 mps 731 mmHg 52%
    12:00 +14°C° 0 mm 7 mps 731 mmHg 51%
    13:00 +15°C° 0 mm 7 mps 730 mmHg 49%
    14:00 +16°C° 0 mm 7 mps 729 mmHg 48%
    15:00 +15°C° 0 mm 7 mps 729 mmHg 50%
    16:00 +15°C° 0 mm 6 mps 729 mmHg 52%
    17:00 +14°C° 0 mm 6 mps 729 mmHg 55%
    18:00 +14°C° 0 mm 6 mps 729 mmHg 56%
    19:00 +14°C° 0 mm 6 mps 730 mmHg 58%
    20:00 +14°C° 0 mm 6 mps 730 mmHg 60%
    21:00 +13°C° 0 mm 6 mps 730 mmHg 64%
    22:00 +11°C° 0 mm 6 mps 730 mmHg 68%
    23:00 +11°C° 0 mm 6 mps 729 mmHg 73%

    22 July, Monday

    Time Temperature Precipitation Wind Pressure Humidity
    00:00 +10°C° 0 mm 5 mps 729 mmHg 78%
    01:00 +10°C° 0 mm 5 mps 729 mmHg 83%
    02:00 +9°C° 0 mm 5 mps 729 mmHg 88%
    03:00 +9°C° 0 mm 5 mps 729 mmHg 89%
    04:00 +8°C° 0 mm 5 mps 729 mmHg 90%
    05:00 +8°C° 0 mm 5 mps 729 mmHg 91%
    06:00 +9°C° 0 mm 5 mps 730 mmHg 89%
    07:00 +9°C° 0 mm 6 mps 730 mmHg 87%
    08:00 +9°C° 0 mm 6 mps 731 mmHg 85%
    09:00 +10°C° 0 mm 6 mps 731 mmHg 79%
    10:00 +11°C° 0 mm 6 mps 731 mmHg 72%
    11:00 +13°C° 0 mm 6 mps 731 mmHg 66%
    12:00 +13°C° 0 mm 6 mps 731 mmHg 63%
    13:00 +13°C° 0 mm 6 mps 731 mmHg 60%
    14:00 +14°C° 0 mm 5 mps 730 mmHg 57%
    15:00 +13°C° 0 mm 5 mps 731 mmHg 57%
    16:00 +13°C° 0 mm 4 mps 731 mmHg 56%
    17:00 +13°C° 0 mm 4 mps 731 mmHg 55%
    18:00 +11°C° 0 mm 4 mps 732 mmHg 57%
    19:00 +10°C° 0 mm 4 mps 732 mmHg 59%
    20:00 +8°C° 0 mm 4 mps 733 mmHg 61%
    21:00 +8°C° 0 mm 4 mps 733 mmHg 62%
    22:00 +8°C° 0 mm 3 mps 734 mmHg 64%
    23:00 +8°C° 0 mm 3 mps 734 mmHg 66%

    23 July, Tuesday

    Time Temperature Precipitation Wind Pressure Humidity
    00:00 +7°C° 0 mm 3 mps 734 mmHg 68%
    01:00 +7°C° 0 mm 3 mps 734 mmHg 70%
    02:00 +5°C° 0 mm 3 mps 734 mmHg 73%
    03:00 +6°C° 0 mm 2 mps 735 mmHg 74%
    04:00 +5°C° 0 mm 2 mps 735 mmHg 76%
    05:00 +5°C° 0 mm 2 mps 735 mmHg 78%
    06:00 +7°C° 0 mm 1 mps 735 mmHg 75%
    07:00 +7°C° 0 mm 1 mps 736 mmHg 72%
    08:00 +8°C° 0 mm 1 mps 737 mmHg 69%
    09:00 +9°C° 0 mm 1 mps 737 mmHg 64%
    10:00 +10°C° 0 mm 1 mps 737 mmHg 58%
    11:00 +11°C° 0 mm 0 mps 737 mmHg 53%
    12:00 +11°C° 0 mm 0 mps 736 mmHg 50%
    13:00 +13°C° 0 mm 1 mps 736 mmHg 46%
    14:00 +14°C° 0 mm 1 mps 735 mmHg 43%
    15:00 +14°C° 0 mm 1 mps 735 mmHg 45%
    16:00 +13°C° 0 mm 1 mps 736 mmHg 47%
    17:00 +13°C° 0 mm 1 mps 736 mmHg 49%
    18:00 +12°C° 0 mm 1 mps 736 mmHg 52%
    19:00 +10°C° 0 mm 0 mps 736 mmHg 55%
    20:00 +10°C° 0 mm 0 mps 737 mmHg 58%
    21:00 +9°C° 0 mm 0 mps 737 mmHg 59%
    22:00 +9°C° 0 mm 0 mps 737 mmHg 60%
    23:00 +8°C° 0 mm 0 mps 737 mmHg 61%
    Show more